Regional Weather Roundup
Issued by NWS Wakefield, VA

Home | Current Version | Previous Version | Graphics & Text | Print | Product List | Glossary On
Versions: 1 2 3 4 5 6 7 8 9 10 11 12 13 14 15 16 17 18 19 20 21 22 23 24 25 26 27 28 29 30 31 32 33 34 35 36 37 38 39 40 41 42 43 44 45 46 47 48 49 50
000
ASUS41 KAKQ 171310
RWRAKQ

REGIONAL WEATHER ROUNDUP
NATIONAL WEATHER SERVICE WAKEFIELD VA
900 AM EDT WED SEP 17 2014

Note: "fair" indicates few or no clouds below 12,000 feet with no
significant weather and/or obstructions to visibility. * = Denotes
station may not report precipitation (e.g., rain,snow,etc.),
thunder or fog.

VAZ042-051-052>054-056-171400-
NORTHERN VIRGINIA

CITY           SKY/WX    TMP DP  RH WIND       PRES   REMARKS
WASH NATIONAL  MOSUNNY   65  53  65 NE7       30.07S
DULLES         PTSUNNY   58  52  80 NW3       30.08S
FORT BELVOIR   SUNNY     64  55  72 VRB1      30.07S
QUANTICO       MOSUNNY   65  55  70 N7        30.08R
FREDERICKSBRG* SUNNY     62  53  73 NW3       30.06R
STAFFORD*      MOSUNNY   62  55  76 N5        30.10S
WARRENTON      MOSUNNY   58  56  95 CALM      30.07S
CULPEPER*      SUNNY     57  54  88 N5        30.08S
MANASSAS*      NOT AVBL
LEESBURG*      PTSUNNY   59  54  82 CALM      30.09R
WINCHESTER     SUNNY     57  50  77 CALM      30.08S
FRONT ROYAL*   CLOUDY    52  52 100 CALM      30.08S
LURAY*         CLOUDY    54  54 100 CALM      30.09S
$$

VAZ048-049-060>072-079>083-171400-
CENTRAL AND SOUTH CENTRAL VIRGINIA...AND NORTH CENTRAL NORTH CAROLINA

CITY           SKY/WX    TMP DP  RH WIND       PRES   REMARKS
RICHMOND       PTSUNNY   66  57  72 N8        30.04R
CHESTERFIELD*  PTSUNNY   63   7  11 N5        30.06R
PETERSBURG*    CLOUDY    64  56  74 NE9       30.04S
HANOVER        SUNNY     63  56  78 VRB3      30.07R
TAPPAHANNOCK*  SUNNY     63  59  86 N3        30.06R
CHARLOTTSVILLE CLOUDY    59  51  75 CALM      30.07R
ORANGE*        PTSUNNY   61  50  67 NW6       30.08S
LOUISA*        PTSUNNY   61  52  72 NE5       30.05S
FARMVILLE*     PTSUNNY   63  52  67 N7        30.03S
CREWE*         SUNNY     65  57  77 NE3       30.04S
FORT PICKETT*  CLOUDY    62  57  83 NE7       30.04S
LUNENBURG*     NOT AVBL
SOUTH HILL*    PTSUNNY   66  61  82 N5          N/A
LAWRENCEVILLE* PTSUNNY   65  59  82 NE3       30.02S
ROANOKE RAPIDS CLOUDY    64  61  88 NE6       30.01R
RALEIGH        PTSUNNY   69  60  73 NE9       30.00R
$$

VAZ088>098-171400-
SOUTHEAST VIRGINIA

CITY           SKY/WX    TMP DP  RH WIND       PRES   REMARKS
NORFOLK        CLOUDY    69  62  78 E8        30.00S
VIRGINIA BEACH CLOUDY    72  61  68 NE10      30.00R
NORFOLK NAVAL  CLOUDY    72  63  73 NE14      30.02S
WEST POINT*    PTSUNNY   67  60  80 CALM      30.05S
NEWPORT NEWS   CLOUDY    72  64  76 NE6       30.01S
LANGLEY AFB    PTSUNNY   71  65  80 E13       30.00S
FORT EUSTIS    PTSUNNY   69  68  96 NE5       30.00S
WILLIAMSBURG*  PTSUNNY   70  63  78 CALM      30.03S
HR EXEC AP*    CLOUDY    70  64  83 NE3       30.03R
FRANKLIN*        N/A     68  64  88 N6        30.00F
WAKEFIELD      CLOUDY    67  61  81 VRB3      30.02S
$$

VAZ020-022-025-037-045-171400-
WEST CENTRAL AND SOUTHWEST VIRGINIA

CITY           SKY/WX    TMP DP  RH WIND       PRES   REMARKS
STAUNTON*      NOT AVBL
HOT SPRINGS VA CLOUDY    51  36  56 E6        30.13R
LYNCHBURG      CLOUDY    61  51  70 N9        30.07R
DANVILLE       CLOUDY    64  55  72 NE7       30.04R
SOUTH BOSTON*  NOT AVBL
MARTINSVILLE   PTSUNNY   63  56  79 N5        30.07S
ROANOKE        CLOUDY    61  52  72 NE6       30.08S
BLACKSBURG     CLOUDY    61  55  82 E6        30.09S
DUBLIN*        PTSUNNY   57  57 100 CALM      30.09S FOG
MARION*        CLOUDY    58  55  89 NE8       30.09F
HILLSVILLE*    PTSUNNY   55  52  91 CALM      30.08S
RICHLANDS*     FOG       57  55  95 CALM      30.07S VSB<1/4
WISE*          CLOUDY    57  57 100 N3        30.07F FOG
ABINGDON*      PTSUNNY   60  57  90 CALM      30.05S
$$

MDZ021>025-VAZ099-100-171400-
SOUTHERN MARYLAND AND THE DELMARVA PENINSULA

CITY           SKY/WX    TMP DP  RH WIND       PRES   REMARKS
PATUXENT RIVER MOSUNNY   67  55  65 E10       30.05R
BAY BRIDGE APT   N/A     64  52  63 NE5       30.07R
LEONARDTOWN    SUNNY     64  55  72 CALM      30.06S
DOVER          SUNNY     63  57  80 N7        30.04R
GEORGETOWN     MOSUNNY   64  56  75 E9        30.06S
EASTON         MOSUNNY   64  61  88 CALM      30.10R
CAMBRIDGE      SUNNY     63  54  72 NE5       30.05S
SALISBURY      MOSUNNY   66  56  70 NE8       30.04S
OCEAN CITY     MOSUNNY   70  56  61 NE12      30.04S
WALLOPS ISLAND MOSUNNY   69  60  73 NE10      30.04R
ACCOMACK*      MOSUNNY   68  59  73 N6        30.03R
$$

NCZ012>017-030>032-171400-
EASTERN NORTH CAROLINA

CITY           SKY/WX    TMP DP  RH WIND       PRES   REMARKS
ELIZABETH CITY CLOUDY    72  64  76 NE12      29.98S
AHOSKIE*       MOSUNNY   67  63  86 N6        30.00S
EDENTON*       NOT AVBL
CURRITUCK*     CLOUDY    72  59  62 NE8       29.99S
KILL DEVIL HLS CLOUDY    74  62  67 NE10      29.96S
MANTEO         NOT AVBL
CAPE HATTERAS  CLOUDY    72  68  87 E9        29.94R
TARBORO*       CLOUDY    69  63  82 N6        29.99S
GOLDSBORO      MOSUNNY   70  69  97 NE7       29.95R
WASHINGTON     MOSUNNY   68  66  93 NE6       29.97S
GREENVILLE     MOSUNNY   70  64  83 NE6       29.99S
NEW BERN       MOSUNNY   72  68  87 N5        29.96S
WILMINGTON     PTSUNNY   70  66  87 NW6       29.93S
$$

VAZ048-171400-
ELSEWHERE

CITY           SKY/WX    TMP DP  RH WIND       PRES   REMARKS
HARRISBURG PA  SUNNY     59  51  75 CALM      30.08R
BALTIMORE      MOSUNNY   64  52  64 VRB3      30.06S
ANNAPOLIS      SUNNY     65  57  75 NW3       30.06S
ANDREWS AFB    SUNNY     54  50  87 N6        30.04S
WILMINGTON DE  MOSUNNY   63  52  67 N3        30.07S
PHILADELPHIA   MOSUNNY   64  51  62 CALM      30.07R
WILDWOOD NJ*   SUNNY     61  48  63 NE7       30.07R
ATLANTIC CITY  MOSUNNY   63  55  75 N7        30.06R
GREENSBORO     CLOUDY    62  57  83 NE9       30.02R
ROCKY MOUNT    PTSUNNY   70  62  76 NE12      29.99R
FAYETTEVILLE   CLOUDY    68  66  93 N7        29.96S
CHARLOTTE      CLOUDY    65  62  90 N9        30.00R
$$

VAZ100-171400-
MARINE

STATION/POSITION TIME  TEMP    WIND        PRES    WAVE   SWELL
                       AIR SEA DIR/SP/G            HT/PER HT/PER
                 (UTC) (F)     (DEG/KT/KT) (MB)    (FT/S) (FT/S)
44066 TX TWR #4  1300   67 73   20/ 12/ 14 1016.5R   4/14   3/14
CAPE MAY NJ      1300   62 75   50/  6/  8 1017.1R
LEWES DE         1300   66 70   60/ 14/ 15 1017.0F
15NM E FENWICK I 1300   69 72              1016.7R   3/15
OCEAN-CITY-INLET 1300   69 71   40/  4/  8 1016.7R
WACHAPREAGUE VA  1300   68 73   20/  7/ 10 1016.6R
THOMAS POINT MD  1300   64 74   60/  8/  9 1019.0R
GOOSES REEF MD   1300   67      90/ 10/ 14 1018.0S
COVE POINT MD    1300   65      90/ 12/ 14 1017.4R
SOLOMONS ISLAND  1300      75                N/A
BISHOPS HEAD MD  1300   66 70   50/ 10/ 13 1016.7S
PINEY POINT MD   1300           80/  6/  8   N/A
POTOMAC MD       1300   68      80/ 12/ 14 1016.4S
CAMBRIDGE MD     1300   64 74   60/  6/  8 1017.4S
LEWISETTA VA     1300   69 73   70/ 10/ 13 1016.8S
RAPPAHANNOCK LGT 1300           40/ 13/ 15 1017.0R
STINGRAY PT      1300   71      70/ 12/ 16   N/A
YORK RVR RNG VA  1300   71      70/ 12/ 14 1016.0R
YORKTOWN VA      1300   70 77   40/  9/ 12 1016.3R
JAMESTOWN VA     1300   67      20/  6/  8   N/A
DOMINION TERM VA 1300   71      40/  5/  9 1016.1R
KIPTOPEKE VA     1300      79   70/  5/  8   N/A
CHES BAY BRIDGE  1300   71 75   40/ 15/ 17 1015.3F
CAPE HENRY VA    1300   71      50/ 13/ 16 1014.7S
CHESAPEAKE LGHT  1200   71      60/ 15/ 16 1016.4R
WILLOUBY STN VA  1300   71      50/ 12/ 14 1014.9R
S CRANEY ISL VA  1300           30/  6/  9 1015.8R
CAPE HENRY BUOY  1300      75                N/A     3/15   2/15
1ST LANDING BUOY 1300   72      60/ 12/ 16 1015.6F
CAPE CHARLES BUO 1300      75                N/A     3/14   3/14
OFFSHORE WE BUOY 1300      74                N/A     3/12   3/12
64NM E OF VA BCH 1300   73 77   60/ 14/ 17 1015.0S   4/14   3/14
DUCK PIER NC     1300   73 76   60/ 17/ 19 1014.4S
44100 DUCK FRF   1300      74                N/A     4/13   2/13
44056 DUCK FRF   1300                        N/A     4/15   2/15
OREGON INLET NC  1300   74 76   40/ 13/ 18 1014.3R
HATTERAS NC      1300   75 79   50/  9/ 18 1014.1S
DIAMOND SHLS NC  1300   72      20/ 14/ 19 1013.4R   5/15   3/15
CAPE LOOKOUT NC  1200   76      90/ 10/ 11 1013.0S
$$


USA.gov is the U.S. government's official web portal to all federal, state and local government web resources and services.